RH
100 100 94 99 90 86 95 81 97 88 73 91 100 99 99 92 78 71 69 66 68 62 68 62 52 58 61 62 55 59 55 58 68 53 55 62 63 56 52 41 48 44 46 50 65 43 27 36 35 26 27 36 38 41
100 100 99 98 99 75 70 99 83 75 84 99 100 100 100 94 83 73 74 70 67 65 68 74 69 65 62 58 67 72 50 64 62 67 73 77 63 70 52 33 49 44 45 46 45 36 34 38 29 32 40 38 40 44
100 100 100 100 98 98 92 82 77 83 90 87 100 97 100 99 85 74 74 71 70 82 84 83 79 72 66 60 63 61 73 66 69 70 73 70 63 64 52 55 45 41 54 55 40 33 43 43 41 38 40 38 39 43
100 100 98 100 100 97 94 99 100 98 89 86 98 98 98 100 89 77 74 71 69 80 80 77 74 72 70 69 66 66 67 71 73 77 70 68 60 58 56 53 52 46 51 51 51 42 40 35 42 40 40 41 45 49
100 100 100 100 100 100 100 100 100 100 100 100 89 87 100 100 91 81 77 76 71 72 85 88 81 79 74 69 71 68 68 74 78 73 78 70 77 73 81 77 76 60 49 47 45 37 34 34 35 40 43 44 50 56
99 100 100 100 100 100 100 98 100 100 99 95 94 100 100 99 91 81 93 86 78 71 87 94 88 85 81 76 77 78 81 86 84 76 78 84 84 75 81 74 51 59 50 43 40 37 40 36 40 42 43 47 50 63
92 92 92 95 95 100 100 100 100 98 92 99 100 100 100 98 96 92 89 85 84 71 85 99 99 84 83 83 90 89 86 92 86 87 88 88 87 86 87 82 50 57 55 53 53 50 49 49 49 56 52 56 62 60
88 87 87 88 89 91 92 99 96 82 75 78 97 100 100 100 98 96 93 96 82 82 92 100 100 94 83 93 92 95 93 90 90 89 94 91 90 91 91 73 68 67 66 60 59 61 59 61 61 58 64 66 62 64
92 92 90 91 91 91 94 91 75 68 69 70 88 98 93 93 99 99 100 96 85 85 100 100 98 99 89 98 93 94 92 93 93 93 93 91 93 96 83 80 77 78 77 75 78 77 68 64 67 63 64 66 65 66
81 82 84 86 90 92 92 94 68 78 74 85 70 70 97 100 97 99 95 98 99 99 100 99 92 99 93 96 98 96 96 97 99 93 94 90 86 79 77 74 75 85 81 82 87 74 67 70 71 67 70 68 66 67
85 84 84 83 82 89 90 87 84 82 89 88 97 99 99 100 90 96 100 100 100 100 99 98 94 98 93 96 96 93 98 98 98 94 96 94 96 79 77 79 76 85 82 87 86 83 83 76 75 76 75 69 68 69
85 85 85 85 83 79 85 81 74 79 92 93 97 97 95 99 100 99 99 100 99 97 99 99 98 87 95 92 97 99 99 99 96 93 96 88 88 74 84 81 81 85 79 79 76 76 73 71 72 76 73 68 65 64
85 86 87 87 87 82 80 78 53 86 89 78 92 99 99 99 98 97 97 98 99 99 99 100 99 100 100 100 100 99 98 97 95 97 93 91 79 82 87 84 83 78 71 72 72 70 74 71 61 61 62 57 56 53
85 91 92 90 90 86 70 44 42 50 66 92 90 96 96 96 97 97 97 98 99 99 99 99 99 99 100 99 99 97 97 94 97 97 95 93 84 87 87 83 84 84 78 74 80 74 79 69 60 56 54 53 51 53
86 80 82 90 94 82 57 46 42 51 74 95 86 97 96 95 98 98 98 98 99 100 100 100 99 99 99 99 98 97 97 96 93 95 97 92 85 89 85 84 85 86 82 77 69 72 70 63 57 57 52 49 47 48
82 64 86 92 83 68 59 47 47 59 78 88 90 94 93 97 97 93 95 94 95 94 100 99 99 98 98 97 97 96 95 90 96 96 96 89 82 84 84 84 80 79 72 66 65 62 64 58 56 54 52 48 46 44
61 73 82 89 67 67 66 57 61 91 95 86 91 90 97 97 97 95 90 79 86 81 89 92 93 96 94 96 97 96 95 92 93 91 95 82 83 85 86 77 70 71 70 62 63 62 61 58 54 56 58 48 42 40
71 69 79 86 68 70 72 79 94 92 92 96 89 91 92 93 92 76 78 86 84 96 86 74 93 85 93 96 97 99 98 97 94 94 85 84 81 81 78 74 69 68 69 63 63 65 64 63 64 58 47 43 45 47
72 82 89 85 75 90 91 92 90 99 97 96 96 98 96 87 88 84 78 79 94 97 95 97 87 89 79 86 97 97 98 99 84 78 82 79 78 79 75 71 68 68 68 67 68 68 64 60 56 48 47 50 51 50
86 85 77 72 78 92 80 94 92 82 90 94 100 98 99 96 96 97 97 99 99 100 99 99 91 69 68 80 84 74 83 80 86 89 86 84 79 78 79 78 72 69 68 68 61 62 53 54 54 53 53 56 57 54
84 86 82 86 75 87 90 100 99 84 85 85 97 98 99 99 100 100 98 98 100 100 95 94 92 81 74 74 76 78 84 87 90 90 88 95 84 86 85 74 65 63 62 60 71 73 73 73 69 59 55 54 55 56
86 96 86 98 95 95 97 96 97 97 83 92 90 98 98 98 97 100 96 100 98 98 98 99 94 89 92 95 98 99 98 97 95 95 98 98 95 85 78 74 83 79 72 72 76 77 71 65 64 65 65 65 70 71
94 87 97 93 93 90 88 98 96 97 100 98 97 100 98 96 99 92 98 93 95 94 93 89 90 89 93 92 97 96 95 95 95 95 94 86 79 69 72 73 76 79 83 78 83 80 79 83 76 81 83 86 91 94
96 98 98 94 97 93 95 98 97 97 97 97 92 99 99 100 96 96 97 98 98 96 94 97 97 81 95 91 93 94 98 89 84 81 90 88 88 85 84 86 91 99 100 99 96 96 96 97 100 99 99 98 97 94
93 92 95 95 96 96 96 96 96 96 98 96 96 97 96 98 97 96 98 97 95 93 94 95 95 94 96 98 96 91 86 93 100 96 95 93 91 90 93 96 100 100 95 90 94 93 90 90 90 93 95 95 98 97
96 91 94 94 96 96 96 96 96 95 96 96 96 96 96 96 96 96 97 97 96 97 94 94 93 92 86 86 88 88 92 93 88 92 95 97 100 100 94 90 92 94 91 94 96 96 93 92 94 95 94 91 96 96
97 94 95 93 94 93 94 92 93 97 96 96 96 96 96 96 97 97 96 96 95 95 90 91 94 94 94 88 82 83 90 77 79 94 100 95 83 96 94 96 100 91 94 97 95 98 100 100 100 97 96 93 92 94
96 96 96 96 95 97 96 96 97 96 96 95 95 96 96 95 95 96 97 96 94 82 77 80 80 80 80 82 84 85 89 79 72 84 82 73 73 86 96 88 87 93 100 97 99 99 99 100 99 96 96 98 95 89
98 92 94 96 96 96 96 96 95 95 92 95 96 96 97 97 97 97 96 84 76 71 74 76 74 75 72 77 82 85 95 94 88 98 98 96 92 81 87 89 88 89 95 95 91 98 99 98 97 97 97 98 98 96
96 99 96 97 97 96 96 95 96 94 93 94 93 96 95 96 96 96 92 74 71 75 75 77 78 80 90 91 90 81 85 90 95 98 99 98 95 92 93 94 94 93 94 97 97 94 93 95 93 93 95 95 95 94
96 98 97 99 98 96 96 95 95 93 95 96 95 95 94 95 96 95 81 72 72 72 69 70 68 76 84 88 98 100 95 90 95 96 98 97 96 95 97 96 97 98 98 98 97 97 97 96 96 97 96 96 95 98
97 99 98 98 97 96 96 96 98 97 96 95 95 96 95 95 96 96 96 93 86 75 77 75 79 78 79 83 87 93 99 100 99 99 97 96 95 97 96 98 98 97 97 97 97 97 97 98 98 98 98 96 96 96
100 100 99 98 95 88 93 95 98 97 97 98 97 95 95 95 94 95 100 98 97 92 72 71 74 73 73 82 83 90 98 99 98 100 100 100 100 98 97 95 95 97 97 97 97 98 97 97 96 96 96 96 96 97
Wind_Speed
40 47 61 73 59 64 60 51 57 51 48 45 39 32 26 20 14 12 5 9 3 2 1 1 2 4 2 2 3 3 2 1 2 1 2 2 2 2 1 3 2 2 2 2 1 2 2 5 2 2 4 1 4 5
35 42 64 31 15 41 48 55 49 47 44 42 37 32 25 20 15 10 4 7 5 2 2 2 2 2 1 2 4 1 2 3 4 3 1 2 2 1 1 2 1 1 4 2 6 4 3 4 2 1 1 2 3 5
27 36 56 20 24 37 42 40 47 43 42 39 35 29 24 21 16 10 5 9 3 2 2 2 1 1 2 1 2 3 1 2 2 2 3 1 3 3 2 4 1 2 3 2 2 2 4 5 3 3 2 2 3 4
22 28 38 51 22 22 31 34 33 34 35 34 31 27 22 23 18 13 6 9 3 3 3 1 2 2 1 1 1 1 4 4 4 2 1 2 2 2 2 2 2 4 3 3 4 6 4 3 4 3 4 3 4 4
21 26 30 33 40 39 33 29 28 26 24 26 25 24 24 23 18 12 7 8 4 3 3 2 2 2 2 2 2 2 4 3 2 2 2 3 1 2 1 1 3 5 6 4 5 4 3 4 4 1 5 6 7 7
21 23 25 28 29 33 35 30 23 23 21 18 20 24 22 24 20 9 1 8 9 4 3 0 2 4 5 4 6 5 2 2 2 3 2 1 1 2 2 3 5 4 1 0 1 1 3 5 6 3 3 5 3 7
22 22 24 24 25 26 25 24 20 20 19 22 21 22 22 22 18 3 3 6 15 6 2 1 0 2 2 2 3 2 3 1 1 1 1 1 1 3 2 3 4 5 5 5 1 3 2 2 3 6 3 0 6 7
19 21 22 23 23 23 23 19 18 15 16 11 15 20 23 21 12 7 8 13 15 6 2 1 1 1 0 1 1 2 1 2 2 2 1 2 1 1 3 1 6 5 8 4 5 5 5 5 5 2 2 4 4 5
19 20 21 21 21 21 21 17 10 12 13 10 14 18 8 6 3 4 9 12 8 4 2 2 4 3 1 1 1 1 0 2 0 1 2 3 1 4 1 5 6 6 5 8 9 8 7 4 6 2 4 5 5 4
17 18 19 20 21 23 23 20 8 8 8 4 1 6 2 3 13 9 2 1 2 1 1 2 2 3 3 1 1 2 1 2 2 2 2 3 3 0 3 4 5 6 7 6 3 5 3 3 4 3 4 2 3 3
16 17 18 19 19 21 22 22 8 9 3 3 2 2 3 7 2 2 1 2 2 2 3 3 3 3 3 3 3 2 2 2 2 2 2 2 2 2 6 7 6 6 6 6 5 6 6 6 5 4 4 3 3 5
15 16 16 17 18 19 20 21 13 5 3 4 6 6 6 1 1 3 3 2 3 4 3 3 2 2 2 2 2 3 3 2 3 3 2 2 2 3 6 6 7 6 7 6 8 6 6 6 5 2 1 3 4 5
14 16 15 15 15 16 17 18 15 7 7 5 4 3 1 1 2 4 5 3 3 2 2 2 2 2 2 1 2 2 4 3 4 2 2 3 3 4 6 5 6 8 9 7 7 9 9 7 8 5 3 3 6 9
13 13 17 17 16 15 17 16 15 5 4 3 2 3 2 1 2 2 1 2 1 1 1 2 2 2 2 2 2 3 2 3 2 2 3 2 3 4 5 5 5 7 6 5 3 5 4 5 5 6 5 7 10 10
9 8 17 20 17 16 16 15 13 7 4 3 3 2 2 1 1 2 2 1 2 1 1 2 2 1 2 2 2 3 2 3 4 3 2 2 2 2 4 4 5 6 6 6 6 5 4 4 5 6 6 7 8 9
8 4 14 16 17 17 17 12 10 4 4 3 4 2 1 2 2 2 2 2 2 1 1 2 1 2 1 1 2 3 5 3 2 2 2 0 1 2 3 4 5 7 7 6 6 4 1 3 5 6 6 6 5 5
7 5 13 15 16 17 13 7 5 5 3 3 2 1 1 2 1 2 3 3 6 2 2 2 3 3 2 3 2 2 3 3 3 1 1 1 2 4 5 7 8 9 8 7 4 2 2 3 5 5 3 5 4 4
4 7 10 13 16 11 6 10 4 3 4 1 3 2 2 2 1 2 2 2 3 2 2 1 2 3 1 1 1 1 1 1 1 0 3 3 3 5 6 5 8 9 8 7 4 3 3 5 4 4 4 2 3 3
5 8 9 11 12 5 4 5 4 2 2 1 2 1 2 2 2 3 2 2 2 2 3 2 4 1 2 2 1 3 1 1 1 2 3 4 5 7 10 10 10 10 8 5 2 3 5 6 5 4 4 4 6 5
2 6 9 7 6 3 3 2 2 1 2 2 2 3 2 1 2 2 3 1 2 2 3 2 3 2 2 2 2 2 2 2 2 2 4 3 4 9 10 10 8 8 5 3 1 1 1 1 3 4 6 7 7 9
2 2 5 3 2 1 1 0 2 1 1 1 1 2 3 3 2 3 2 2 3 2 2 2 1 3 3 3 4 5 6 2 2 3 2 3 6 10 13 14 9 6 3 2 1 2 2 4 6 7 7 8 8 9
1 3 1 1 2 4 2 2 2 2 1 1 1 1 2 2 2 1 1 2 1 2 1 2 3 4 4 3 2 2 3 5 5 3 4 5 2 3 5 10 9 6 6 6 6 6 8 7 7 7 8 9 9 10
0 2 1 1 2 1 4 4 2 2 1 2 1 1 2 2 2 1 1 1 1 3 2 2 5 7 6 5 6 7 9 6 4 4 4 4 4 3 6 6 6 6 5 4 9 8 8 9 8 8 8 7 6 7
1 1 3 1 2 3 2 2 2 1 2 1 1 3 3 3 1 0 1 1 2 4 4 6 6 3 3 5 3 6 10 10 8 6 7 5 4 4 7 6 5 5 7 7 7 7 8 8 7 6 6 7 8 10
3 2 2 2 2 2 1 2 2 1 2 3 3 3 3 1 1 1 0 2 2 3 4 9 8 6 3 2 4 5 9 12 9 4 4 7 8 6 6 6 4 5 8 10 11 11 11 10 10 9 9 9 11 13
2 2 3 3 2 1 1 1 2 2 1 1 3 0 1 2 2 1 1 1 1 2 3 4 4 2 3 6 3 5 9 12 12 5 0 10 6 3 3 3 4 3 9 11 13 14 15 14 13 13 14 14 13 14
1 2 1 0 1 0 1 2 2 1 2 2 1 0 1 2 1 1 1 3 1 3 4 5 5 4 3 6 6 7 7 12 7 6 3 5 8 5 3 6 7 12 14 15 14 14 14 15 15 15 16 16 15 15
0 1 1 1 0 0 1 1 1 2 1 1 1 1 3 2 1 1 1 2 2 1 5 6 8 8 6 5 8 8 5 13 10 2 3 3 7 5 2 14 16 14 13 12 12 13 14 14 16 17 18 19 16 12
1 1 1 1 2 1 3 2 2 0 1 1 1 1 1 1 2 2 3 3 4 4 8 9 9 7 8 5 8 7 5 10 17 6 6 4 7 7 17 18 16 15 14 14 13 12 13 15 17 16 9 11 14 13
2 1 1 1 0 1 1 1 1 1 1 1 0 2 1 2 3 5 6 6 9 9 8 6 7 9 9 11 13 13 8 6 8 9 3 4 10 22 22 21 20 17 16 16 16 15 13 11 12 13 13 12 11 14
1 1 1 1 2 1 1 2 2 2 1 0 1 2 2 2 3 3 5 7 7 8 11 15 13 12 10 10 10 10 10 5 13 18 16 16 20 21 23 22 22 19 18 16 14 14 14 14 12 10 9 10 12 12
2 2 2 1 2 1 2 1 1 1 1 1 1 1 1 1 2 4 5 2 2 9 9 13 15 14 9 8 6 6 10 15 19 17 17 19 21 22 23 19 17 17 15 14 13 12 11 11 10 11 12 13 12 12
2 1 1 1 3 3 2 2 3 1 2 1 1 1 0 1 3 2 4 3 3 4 12 14 15 10 6 7 3 10 14 16 16 14 14 16 16 17 18 18 16 14 12 11 9 8 8 8 9 9 9 9 10 9
Wind_Direction
313 314 316 308 273 243 233 224 195 200 200 207 204 199 198 196 201 198 203 197 192 157 224 217 150 137 117 148 160 188 64 348 55 104 165 226 186 240 316 246 206 189 130 214 108 61 358 159 100 181 214 55 169 179
325 333 334 313 226 197 192 189 195 197 195 203 201 194 194 194 195 195 183 187 174 104 137 104 97 111 102 129 135 164 172 165 195 98 179 122 246 78 164 288 27 314 183 198 177 218 276 228 247 11 132 150 196 177
341 355 351 5 131 148 161 183 190 191 193 195 196 190 191 192 190 192 175 165 151 109 42 101 196 91 122 117 146 133 255 154 146 164 154 171 251 133 202 244 268 249 167 201 18 272 249 267 258 246 177 233 188 178
2 11 8 15 67 154 164 168 173 186 193 190 189 185 191 187 185 187 171 178 155 110 132 209 121 108 54 136 191 136 131 114 108 109 122 150 214 151 237 265 221 214 135 178 274 281 276 293 226 221 203 208 162 149
34 31 28 19 33 51 74 97 139 155 166 177 178 184 187 186 177 177 165 173 177 138 172 176 109 51 39 108 142 156 140 115 122 100 116 228 177 122 46 345 245 188 186 165 223 230 160 252 303 138 199 222 208 169
42 42 38 36 36 35 44 55 66 112 139 141 166 174 183 173 170 146 133 205 186 159 99 65 28 26 41 92 93 77 63 73 98 143 207 275 249 117 139 244 268 220 243 79 270 229 233 272 280 253 248 248 211 182
42 41 42 40 39 33 34 34 49 61 92 133 152 162 169 168 167 148 153 149 167 147 93 63 57 16 55 68 41 47 45 73 106 137 193 165 190 110 151 239 316 11 351 318 338 297 266 233 299 336 260 26 146 141
42 42 39 37 40 39 28 20 26 47 70 83 134 146 160 159 129 98 100 127 145 103 74 165 108 4 357 86 78 358 76 34 18 158 101 174 96 100 242 304 341 335 319 316 16 332 247 275 287 263 106 133 124 142
37 38 39 36 36 38 36 30 32 40 73 102 123 112 90 63 81 106 140 151 150 106 188 147 162 213 58 91 84 45 248 146 3 194 229 138 173 219 324 323 329 325 301 290 307 293 292 288 300 250 175 178 167 179
34 33 32 30 27 30 31 28 50 48 68 112 105 70 79 65 112 100 69 112 86 103 79 188 90 168 135 143 143 120 285 164 175 243 112 206 252 33 58 317 305 318 314 314 346 340 335 311 280 254 228 205 192 177
35 31 30 27 24 25 25 28 94 127 124 24 42 70 67 106 63 52 117 149 144 194 184 189 164 145 207 134 164 206 171 140 165 236 209 203 274 292 345 335 331 326 317 308 251 264 276 276 287 269 241 210 184 172
31 29 23 21 21 21 22 25 42 81 70 95 84 73 64 47 134 139 189 187 194 193 162 148 147 136 161 205 127 177 169 148 230 165 205 237 261 299 332 322 323 332 333 357 19 20 15 19 346 290 190 164 164 161
23 20 19 19 16 17 17 20 32 71 92 84 63 79 8 342 161 184 190 185 167 137 147 145 140 130 132 173 111 152 170 188 123 153 219 223 275 314 326 327 334 351 9 16 10 16 15 20 29 30 79 97 127 127
20 29 27 23 18 13 11 10 15 43 62 65 65 62 49 28 47 353 21 42 39 317 127 123 126 155 146 160 136 144 87 113 118 179 223 241 249 311 331 333 349 336 346 358 357 12 44 50 50 68 110 141 142 136
17 30 24 20 18 14 9 6 10 49 59 67 61 73 50 268 318 316 318 3 354 320 133 117 113 143 155 145 150 108 117 197 187 187 186 217 251 292 312 329 338 343 346 348 352 357 10 61 95 99 116 135 145 148
359 3 15 4 5 4 2 3 20 51 50 56 46 69 322 53 47 1 352 19 3 17 32 6 58 127 121 152 128 197 137 170 200 199 230 87 338 311 295 324 330 334 335 330 337 340 3 140 142 149 150 158 167 176
1 29 2 360 359 357 2 10 20 43 102 54 359 327 85 76 228 309 344 342 328 44 81 63 36 12 339 43 41 40 157 190 195 279 265 296 342 335 340 340 343 344 343 338 319 282 226 182 169 168 183 218 225 227
9 4 3 356 355 356 14 20 65 66 47 324 76 319 328 298 335 302 316 332 15 29 48 121 124 58 85 73 97 117 301 347 77 293 307 320 330 331 335 316 328 334 323 317 303 255 211 200 207 236 253 236 244 252
355 352 351 350 357 8 16 10 37 56 257 259 290 221 228 280 288 304 286 347 37 72 99 59 65 165 194 200 96 80 84 98 284 304 298 306 320 329 333 341 339 337 328 315 290 238 222 219 222 231 233 255 268 286
303 326 331 338 352 41 352 337 360 9 353 258 3 326 294 258 294 326 326 28 76 81 65 107 204 223 193 205 175 183 208 196 185 264 282 298 336 339 339 338 330 328 325 321 323 187 178 274 269 276 278 279 279 287
307 36 358 30 349 332 310 281 348 222 260 321 239 336 304 341 358 8 345 339 63 149 232 222 263 19 336 317 312 315 323 319 227 209 251 299 339 339 329 339 340 336 335 338 338 287 269 284 302 293 277 271 273 283
41 30 355 46 62 13 17 2 190 283 258 298 319 3 301 308 297 321 321 67 193 287 246 340 337 343 360 15 28 56 331 311 306 281 283 289 298 331 339 337 339 335 332 320 325 323 323 323 321 314 301 301 300 298
113 298 58 53 67 77 271 334 40 342 144 286 18 335 259 266 245 297 50 2 94 19 324 304 310 312 295 326 88 53 33 11 14 15 358 345 327 348 12 9 5 349 347 8 346 338 339 335 332 323 316 311 318 323
198 112 161 193 105 255 15 338 6 36 41 110 215 276 254 224 268 162 237 334 315 339 356 342 335 317 99 63 60 47 24 27 28 29 13 16 25 3 358 349 348 9 6 357 11 13 9 1 354 352 338 327 320 308
74 295 91 315 324 72 339 312 305 51 241 215 183 281 282 108 114 69 130 326 9 9 357 356 17 30 45 40 52 38 16 13 5 332 16 20 356 348 13 32 49 47 19 9 6 354 347 345 344 338 327 321 314 306
163 273 122 195 276 154 235 240 226 238 258 249 230 285 33 80 74 232 266 286 11 2 0 5 356 356 42 24 350 356 347 353 341 323 2 356 5 344 347 355 353 308 349 346 337 330 325 324 322 319 315 315 311 309
214 280 306 355 178 283 302 313 322 273 257 229 288 289 130 84 178 218 115 26 42 26 11 21 21 22 6 352 355 356 6 4 356 324 337 61 32 16 77 38 341 321 326 320 315 310 305 308 311 311 309 309 307 307
37 64 250 254 297 148 184 295 249 237 271 330 5 58 136 161 113 62 37 20 32 78 58 55 42 30 13 356 354 357 11 19 21 34 342 337 357 344 279 330 327 322 312 312 311 307 301 298 298 299 299 301 304 309
92 9 320 249 183 178 201 205 246 341 5 329 118 114 135 63 359 79 56 61 88 103 58 30 17 20 35 51 31 20 16 18 31 30 11 328 331 337 333 333 332 329 324 318 311 304 303 299 296 299 305 304 308 311
289 340 88 12 241 250 186 175 232 292 265 266 101 101 88 78 68 101 103 97 76 65 48 29 12 15 16 13 2 14 26 18 18 5 299 290 297 319 325 326 326 325 322 316 314 312 313 309 300 296 299 301 307 315
5 39 64 119 235 255 358 327 279 246 292 350 41 102 116 137 134 122 106 96 83 60 35 21 17 16 7 7 1 348 345 3 336 333 325 313 316 318 323 324 325 324 317 314 311 309 309 310 312 313 308 306 313 314
2 157 160 222 276 338 18 355 269 160 81 104 106 117 123 133 191 194 203 194 17 34 22 5 358 347 353 354 349 345 327 324 328 330 333 330 327 329 326 334 331 324 318 313 313 313 311 308 305 305 304 306 312 318
31 37 31 25 4 348 349 29 15 11 42 100 103 90 131 236 220 206 176 222 244 348 352 348 345 345 4 357 359 357 350 346 343 333 329 329 328 330 332 331 337 338 331 323 322 326 326 322 319 315 313 311 313 316